Time,TemperatureF,DewpointF,PressureIn,WindDirection,WindDirectionDegrees,WindSpeedMPH,WindSpeedGustMPH,Humidity,HourlyPrecipIn,Conditions,Clouds,dailyrainin,SoftwareType,DateUTC
2013-03-19 00:00:00,33.3,22.0,30.09,ENE,57,7.8,9.2,63,0.00,,---,0.00,VWS V14.01,2013-03-19 04:00:00,
2013-03-19 00:01:00,33.1,22.6,30.09,ENE,57,6.9,10.5,65,0.00,,---,0.00,VWS V14.01,2013-03-19 04:01:00,
2013-03-19 00:06:00,32.5,24.5,30.09,NE,55,7.8,11.0,72,0.00,,---,0.00,VWS V14.01,2013-03-19 04:06:00,
2013-03-19 00:11:00,32.5,25.2,30.09,NE,51,8.3,10.5,74,0.00,,---,0.00,VWS V14.01,2013-03-19 04:11:00,
2013-03-19 00:16:00,32.5,25.5,30.09,NE,40,8.3,10.1,75,0.00,,---,0.00,VWS V14.01,2013-03-19 04:16:00,
2013-03-19 00:21:00,32.7,25.7,30.09,ENE,58,11.0,15.2,75,0.00,,---,0.00,VWS V14.01,2013-03-19 04:21:00,
2013-03-19 00:26:00,32.9,25.9,30.09,ENE,71,12.1,12.1,75,0.00,,---,0.00,VWS V14.01,2013-03-19 04:26:00,
2013-03-19 00:31:00,32.7,26.0,30.09,NE,49,9.2,12.1,76,0.00,,---,0.00,VWS V14.01,2013-03-19 04:31:00,
2013-03-19 00:36:00,32.7,26.6,30.09,NE,55,9.6,10.1,78,0.00,,---,0.00,VWS V14.01,2013-03-19 04:36:00,
2013-03-19 00:41:00,32.7,27.2,30.09,ENE,74,12.1,13.9,80,0.00,,---,0.00,VWS V14.01,2013-03-19 04:41:00,
2013-03-19 00:46:00,32.5,28.0,30.09,ENE,74,10.5,10.5,83,0.00,,---,0.00,VWS V14.01,2013-03-19 04:46:00,
2013-03-19 00:51:00,32.2,28.5,30.09,NE,43,10.5,13.9,86,0.00,,---,0.00,VWS V14.01,2013-03-19 04:51:00,
2013-03-19 00:56:00,32.2,29.0,30.09,East,82,9.2,14.3,88,0.00,,---,0.00,VWS V14.01,2013-03-19 04:56:00,
2013-03-19 01:01:00,32.0,29.4,30.06,ENE,58,13.9,17.7,90,0.00,,---,0.00,VWS V14.01,2013-03-19 05:01:00,
2013-03-19 01:06:00,32.7,30.9,30.06,ENE,62,11.0,11.0,93,0.00,,---,0.00,VWS V14.01,2013-03-19 05:06:00,
2013-03-19 01:11:00,32.7,31.2,30.06,ENE,64,13.9,14.8,94,0.00,,---,0.00,VWS V14.01,2013-03-19 05:11:00,
2013-03-19 01:16:00,32.7,31.5,30.03,ENE,58,11.2,14.3,95,0.00,,---,0.00,VWS V14.01,2013-03-19 05:16:00,
2013-03-19 01:21:00,32.7,31.7,30.03,ENE,61,13.4,14.8,96,0.00,,---,0.00,VWS V14.01,2013-03-19 05:21:00,
2013-03-19 01:27:00,32.9,31.9,30.03,NE,54,10.5,14.8,96,0.00,,---,0.00,VWS V14.01,2013-03-19 05:27:00,
2013-03-19 01:32:00,33.1,32.3,30.03,ENE,62,11.6,16.3,97,0.00,,---,0.00,VWS V14.01,2013-03-19 05:32:00,
2013-03-19 01:37:00,33.4,32.7,30.03,ENE,61,15.2,16.8,97,0.00,,---,0.00,VWS V14.01,2013-03-19 05:37:00,
2013-03-19 01:42:00,33.6,32.9,30.03,East,80,13.0,15.2,97,0.00,,---,0.00,VWS V14.01,2013-03-19 05:42:00,
2013-03-19 01:47:00,33.8,33.0,30.00,East,93,15.4,19.9,97,0.00,,---,0.00,VWS V14.01,2013-03-19 05:47:00,
2013-03-19 01:52:00,33.8,33.0,30.00,NE,55,13.9,17.2,97,0.00,,---,0.00,VWS V14.01,2013-03-19 05:52:00,
2013-03-19 01:57:00,33.8,33.0,30.00,NE,49,11.6,15.9,97,0.00,,---,0.00,VWS V14.01,2013-03-19 05:57:00,
2013-03-19 02:02:00,33.6,32.3,30.00,NE,51,12.1,16.8,95,0.00,,---,0.00,VWS V14.01,2013-03-19 06:02:00,
2013-03-19 02:07:00,33.3,31.5,30.00,East,98,16.3,21.9,93,0.00,,---,0.00,VWS V14.01,2013-03-19 06:07:00,
2013-03-19 02:12:00,33.4,31.4,30.00,East,86,13.9,18.1,92,0.00,,---,0.00,VWS V14.01,2013-03-19 06:12:00,
2013-03-19 02:17:00,33.3,30.9,29.97,NE,46,15.2,21.5,91,0.00,,---,0.00,VWS V14.01,2013-03-19 06:17:00,
2013-03-19 02:22:00,33.3,30.9,29.97,East,79,19.5,19.5,91,0.00,,---,0.00,VWS V14.01,2013-03-19 06:22:00,
2013-03-19 02:27:00,33.3,31.7,29.97,East,81,19.5,20.6,94,0.00,,---,0.00,VWS V14.01,2013-03-19 06:27:00,
2013-03-19 02:32:00,33.3,31.7,29.97,ENE,73,15.9,17.2,94,0.00,,---,0.00,VWS V14.01,2013-03-19 06:32:00,
2013-03-19 02:37:00,33.1,31.3,29.97,NE,53,18.1,19.9,93,0.00,,---,0.00,VWS V14.01,2013-03-19 06:37:00,
2013-03-19 02:42:00,33.3,31.2,29.97,ENE,65,21.0,21.0,92,0.00,,---,0.00,VWS V14.01,2013-03-19 06:42:00,
2013-03-19 02:46:00,33.4,31.6,29.94,ENE,71,22.4,28.6,93,0.00,,---,0.00,VWS V14.01,2013-03-19 06:46:00,
2013-03-19 02:51:00,33.4,31.4,29.94,NE,51,16.8,24.4,92,0.00,,---,0.00,VWS V14.01,2013-03-19 06:51:00,
2013-03-19 02:57:00,33.6,31.3,29.94,ENE,61,16.3,20.1,91,0.00,,---,0.00,VWS V14.01,2013-03-19 06:57:00,
2013-03-19 03:02:00,33.6,31.3,29.94,ENE,73,17.7,22.4,91,0.00,,---,0.00,VWS V14.01,2013-03-19 07:02:00,
2013-03-19 03:07:00,33.8,31.5,29.94,NE,53,15.9,15.9,91,0.00,,---,0.00,VWS V14.01,2013-03-19 07:07:00,
2013-03-19 03:12:00,33.8,31.7,29.94,ENE,57,21.5,21.5,92,0.00,,---,0.00,VWS V14.01,2013-03-19 07:12:00,
2013-03-19 03:17:00,33.8,31.5,29.94,NE,54,19.5,24.4,91,0.00,,---,0.00,VWS V14.01,2013-03-19 07:17:00,
2013-03-19 03:22:00,33.8,31.5,29.94,ENE,62,21.5,23.7,91,0.00,,---,0.00,VWS V14.01,2013-03-19 07:22:00,
2013-03-19 03:27:00,33.8,31.5,29.94,NE,46,21.0,22.8,91,0.00,,---,0.00,VWS V14.01,2013-03-19 07:27:00,
2013-03-19 03:32:00,33.6,31.0,29.91,NE,51,12.5,17.7,90,0.00,,---,0.00,VWS V14.01,2013-03-19 07:32:00,
2013-03-19 03:37:00,33.6,31.0,29.91,NE,56,22.4,24.4,90,0.00,,---,0.00,VWS V14.01,2013-03-19 07:37:00,
2013-03-19 03:42:00,33.6,30.7,29.91,NE,37,17.7,21.9,89,0.00,,---,0.00,VWS V14.01,2013-03-19 07:42:00,
2013-03-19 03:47:00,33.4,30.5,29.91,ENE,64,13.4,20.6,89,0.00,,---,0.00,VWS V14.01,2013-03-19 07:47:00,
2013-03-19 03:52:00,33.3,30.1,29.91,NNE,28,12.5,13.0,88,0.00,,---,0.00,VWS V14.01,2013-03-19 07:52:00,
2013-03-19 03:57:00,33.1,29.9,29.91,NE,53,10.5,11.2,88,0.00,,---,0.00,VWS V14.01,2013-03-19 07:57:00,
2013-03-19 04:02:00,33.1,29.9,29.91,ENE,74,10.1,14.8,88,0.00,,---,0.00,VWS V14.01,2013-03-19 08:02:00,
2013-03-19 04:07:00,33.1,29.9,29.91,ENE,60,0.0,0.0,88,0.00,,---,0.00,VWS V14.01,2013-03-19 08:07:00,
2013-03-19 04:12:00,33.1,29.6,29.91,NE,54,0.0,0.0,87,0.00,,---,0.00,VWS V14.01,2013-03-19 08:12:00,
2013-03-19 04:17:00,33.1,29.6,29.91,NE,56,0.0,0.0,87,0.00,,---,0.00,VWS V14.01,2013-03-19 08:17:00,
2013-03-19 04:22:00,33.1,30.2,29.91,East,84,0.0,0.0,89,0.00,,---,0.00,VWS V14.01,2013-03-19 08:22:00,
2013-03-19 04:27:00,33.1,29.9,29.91,ENE,59,0.0,0.0,88,0.00,,---,0.00,VWS V14.01,2013-03-19 08:27:00,
2013-03-19 04:32:00,33.3,30.1,29.88,East,81,0.0,0.0,88,0.00,,---,0.00,VWS V14.01,2013-03-19 08:32:00,
2013-03-19 04:37:00,33.3,30.1,29.88,NE,54,0.0,0.0,88,0.00,,---,0.00,VWS V14.01,2013-03-19 08:37:00,
2013-03-19 04:42:00,33.3,30.4,29.88,ENE,57,0.0,0.0,89,0.00,,---,0.00,VWS V14.01,2013-03-19 08:42:00,
2013-03-19 04:47:00,33.3,30.4,29.88,NE,52,0.0,0.0,89,0.00,,---,0.00,VWS V14.01,2013-03-19 08:47:00,
2013-03-19 04:52:00,33.4,31.1,29.88,NE,39,0.0,0.0,91,0.00,,---,0.00,VWS V14.01,2013-03-19 08:52:00,
2013-03-19 04:57:00,33.6,31.5,29.88,NE,56,0.0,0.0,92,0.00,,---,0.00,VWS V14.01,2013-03-19 08:57:00,
2013-03-19 05:02:00,33.6,31.5,29.88,NNE,26,0.0,0.0,92,0.00,,---,0.00,VWS V14.01,2013-03-19 09:02:00,
2013-03-19 05:07:00,33.8,31.5,29.88,NE,48,0.0,0.0,91,0.00,,---,0.00,VWS V14.01,2013-03-19 09:07:00,
2013-03-19 05:12:00,34.0,31.9,29.88,ENE,68,0.0,0.0,92,0.00,,---,0.00,VWS V14.01,2013-03-19 09:12:00,
2013-03-19 05:17:00,34.0,32.2,29.85,NE,42,0.0,0.0,93,0.00,,---,0.00,VWS V14.01,2013-03-19 09:17:00,
2013-03-19 05:22:00,34.2,32.3,29.85,NE,44,0.0,0.0,93,0.00,,---,0.00,VWS V14.01,2013-03-19 09:22:00,
2013-03-19 05:27:00,34.3,32.5,29.85,NE,47,0.0,0.0,93,0.00,,---,0.00,VWS V14.01,2013-03-19 09:27:00,
2013-03-19 05:32:00,34.3,32.8,29.85,NE,39,0.0,0.0,94,0.00,,---,0.00,VWS V14.01,2013-03-19 09:32:00,
2013-03-19 05:37:00,34.5,33.2,29.85,NE,50,0.0,0.0,95,0.00,,---,0.00,VWS V14.01,2013-03-19 09:37:00,
2013-03-19 05:42:00,34.5,33.2,29.85,NE,47,0.0,0.0,95,0.00,,---,0.00,VWS V14.01,2013-03-19 09:42:00,
2013-03-19 05:47:00,34.9,33.6,29.85,NE,50,0.0,0.0,95,0.00,,---,0.00,VWS V14.01,2013-03-19 09:47:00,
2013-03-19 05:52:00,34.9,33.6,29.85,NE,46,0.0,0.0,95,0.00,,---,0.00,VWS V14.01,2013-03-19 09:52:00,
2013-03-19 05:57:00,34.9,33.6,29.85,ENE,60,0.0,0.0,95,0.00,,---,0.00,VWS V14.01,2013-03-19 09:57:00,
2013-03-19 06:02:00,35.1,34.0,29.85,NE,53,0.0,0.0,96,0.00,,---,0.00,VWS V14.01,2013-03-19 10:02:00,
2013-03-19 06:07:00,34.9,33.9,29.85,ENE,68,0.0,0.0,96,0.00,,---,0.00,VWS V14.01,2013-03-19 10:07:00,
2013-03-19 06:12:00,35.1,34.0,29.85,NE,49,0.0,0.0,96,0.00,,---,0.00,VWS V14.01,2013-03-19 10:12:00,
2013-03-19 06:17:00,35.4,34.4,29.85,ENE,67,0.0,0.0,96,0.00,,---,0.00,VWS V14.01,2013-03-19 10:17:00,
2013-03-19 06:22:00,35.6,34.8,29.85,NE,52,0.0,0.0,97,0.00,,---,0.00,VWS V14.01,2013-03-19 10:22:00,
2013-03-19 06:27:00,35.6,34.8,29.85,ENE,64,0.0,0.0,97,0.00,,---,0.00,VWS V14.01,2013-03-19 10:27:00,
2013-03-19 06:32:00,35.6,34.8,29.85,NE,50,0.0,0.0,97,0.00,,---,0.00,VWS V14.01,2013-03-19 10:32:00,
2013-03-19 06:37:00,35.8,35.0,29.85,ENE,57,0.0,0.0,97,0.00,,---,0.00,VWS V14.01,2013-03-19 10:37:00,
2013-03-19 06:42:00,35.8,35.0,29.85,East,94,0.0,0.0,97,0.00,,---,0.00,VWS V14.01,2013-03-19 10:42:00,
2013-03-19 06:47:00,36.0,35.2,29.85,ENE,65,15.9,18.6,97,0.00,,---,0.00,VWS V14.01,2013-03-19 10:47:00,
2013-03-19 06:52:00,36.0,35.2,29.85,ENE,75,10.5,10.5,97,0.00,,---,0.00,VWS V14.01,2013-03-19 10:52:00,
2013-03-19 06:57:00,36.0,35.2,29.85,East,81,15.2,15.2,97,0.00,,---,0.00,VWS V14.01,2013-03-19 10:57:00,
2013-03-19 07:02:00,36.1,35.4,29.85,NE,47,16.3,16.3,97,0.00,,---,0.00,VWS V14.01,2013-03-19 11:02:00,
2013-03-19 07:07:00,36.1,35.4,29.85,ENE,57,13.9,20.1,97,0.00,,---,0.00,VWS V14.01,2013-03-19 11:07:00,
2013-03-19 07:12:00,36.3,35.5,29.85,NNE,31,10.1,16.8,97,0.00,,---,0.00,VWS V14.01,2013-03-19 11:12:00,
2013-03-19 07:17:00,36.3,35.5,29.85,NE,39,16.3,16.3,97,0.00,,---,0.00,VWS V14.01,2013-03-19 11:17:00,
2013-03-19 07:22:00,36.3,35.5,29.85,East,85,13.9,13.9,97,0.00,,---,0.00,VWS V14.01,2013-03-19 11:22:00,
2013-03-19 07:27:00,36.5,35.7,29.85,ENE,69,17.7,22.4,97,0.00,,---,0.00,VWS V14.01,2013-03-19 11:27:00,
2013-03-19 07:32:00,36.5,35.7,29.83,ENE,67,17.2,21.5,97,0.00,,---,0.00,VWS V14.01,2013-03-19 11:32:00,
2013-03-19 07:37:00,36.5,35.7,29.83,NE,43,14.8,15.9,97,0.00,,---,0.00,VWS V14.01,2013-03-19 11:37:00,
2013-03-19 07:42:00,36.5,35.7,29.83,East,82,14.8,19.5,97,0.00,,---,0.00,VWS V14.01,2013-03-19 11:42:00,
2013-03-19 07:47:00,36.7,35.9,29.83,NE,52,15.4,17.7,97,0.00,,---,0.00,VWS V14.01,2013-03-19 11:47:00,
2013-03-19 07:52:00,36.7,35.9,29.83,NE,49,16.3,17.2,97,0.00,,---,0.00,VWS V14.01,2013-03-19 11:52:00,
2013-03-19 07:57:00,36.9,36.1,29.80,ENE,66,17.2,18.6,97,0.00,,---,0.00,VWS V14.01,2013-03-19 11:57:00,
2013-03-19 08:02:00,37.0,36.3,29.80,NE,35,15.2,18.1,97,0.00,,---,0.00,VWS V14.01,2013-03-19 12:02:00,
2013-03-19 08:07:00,37.4,36.6,29.80,NE,52,15.9,15.9,97,0.00,,---,0.00,VWS V14.01,2013-03-19 12:07:00,
2013-03-19 08:12:00,37.4,36.6,29.80,ENE,73,19.9,22.8,97,0.00,,---,0.00,VWS V14.01,2013-03-19 12:12:00,
2013-03-19 08:17:00,37.6,36.8,29.80,ENE,77,14.3,18.6,97,0.00,,---,0.00,VWS V14.01,2013-03-19 12:17:00,
2013-03-19 08:22:00,37.6,36.8,29.80,NE,53,20.6,22.8,97,0.00,,---,0.00,VWS V14.01,2013-03-19 12:22:00,
2013-03-19 08:27:00,37.6,36.8,29.80,ENE,58,19.0,25.3,97,0.00,,---,0.00,VWS V14.01,2013-03-19 12:27:00,
2013-03-19 08:32:00,37.6,36.8,29.80,ENE,61,17.7,18.1,97,0.00,,---,0.00,VWS V14.01,2013-03-19 12:32:00,
2013-03-19 08:37:00,37.6,36.8,29.80,NE,49,18.1,18.1,97,0.00,,---,0.00,VWS V14.01,2013-03-19 12:37:00,
2013-03-19 08:42:00,37.8,37.0,29.77,East,82,21.0,30.9,97,0.00,,---,0.00,VWS V14.01,2013-03-19 12:42:00,
2013-03-19 08:47:00,37.9,37.2,29.77,East,80,23.7,23.7,97,0.00,,---,0.00,VWS V14.01,2013-03-19 12:47:00,
2013-03-19 08:52:00,37.9,37.2,29.77,NNE,29,24.4,24.4,97,0.00,,---,0.00,VWS V14.01,2013-03-19 12:52:00,
2013-03-19 08:57:00,38.1,37.3,29.77,ENE,75,19.9,21.5,97,0.00,,---,0.00,VWS V14.01,2013-03-19 12:57:00,
2013-03-19 09:02:00,38.3,37.5,29.77,ENE,67,11.6,14.8,97,0.00,,---,0.00,VWS V14.01,2013-03-19 13:02:00,
2013-03-19 09:07:00,38.5,37.7,29.77,ENE,64,14.3,17.7,97,0.00,,---,0.00,VWS V14.01,2013-03-19 13:07:00,
2013-03-19 09:12:00,38.5,37.7,29.77,NE,49,26.2,28.6,97,0.00,,---,0.00,VWS V14.01,2013-03-19 13:12:00,
2013-03-19 09:17:00,38.7,37.9,29.77,NE,49,13.0,19.0,97,0.00,,---,0.00,VWS V14.01,2013-03-19 13:17:00,
2013-03-19 09:22:00,38.7,37.9,29.77,NE,46,24.8,26.2,97,0.00,,---,0.00,VWS V14.01,2013-03-19 13:22:00,
2013-03-19 09:27:00,38.7,37.6,29.74,NE,53,27.1,27.1,96,0.00,,---,0.00,VWS V14.01,2013-03-19 13:27:00,
2013-03-19 09:32:00,38.8,37.8,29.74,ENE,58,22.8,22.8,96,0.00,,---,0.00,VWS V14.01,2013-03-19 13:32:00,
2013-03-19 09:37:00,38.8,37.8,29.74,NE,47,21.9,21.9,96,0.00,,---,0.00,VWS V14.01,2013-03-19 13:37:00,
2013-03-19 09:42:00,39.0,38.2,29.71,NE,41,19.5,21.0,97,0.00,,---,0.00,VWS V14.01,2013-03-19 13:42:00,
2013-03-19 09:47:00,39.2,38.4,29.71,NE,56,26.2,26.2,97,0.00,,---,0.00,VWS V14.01,2013-03-19 13:47:00,
2013-03-19 09:52:00,39.4,38.6,29.71,ENE,69,17.2,21.9,97,0.00,,---,0.00,VWS V14.01,2013-03-19 13:52:00,
2013-03-19 09:57:00,39.6,38.8,29.71,NE,51,13.4,14.8,97,0.00,,---,0.00,VWS V14.01,2013-03-19 13:57:00,
2013-03-19 10:02:00,39.7,39.0,29.71,ENE,70,14.8,15.9,97,0.00,,---,0.00,VWS V14.01,2013-03-19 14:02:00,
2013-03-19 10:07:00,39.7,39.0,29.71,ENE,59,24.8,25.3,97,0.00,,---,0.00,VWS V14.01,2013-03-19 14:07:00,
2013-03-19 10:12:00,39.9,39.1,29.71,NNE,14,9.2,20.1,97,0.00,,---,0.00,VWS V14.01,2013-03-19 14:12:00,
2013-03-19 10:17:00,39.9,39.1,29.71,East,86,14.8,20.6,97,0.00,,---,0.00,VWS V14.01,2013-03-19 14:17:00,
2013-03-19 10:22:00,40.1,39.3,29.71,NE,51,16.8,26.2,97,0.00,,---,0.00,VWS V14.01,2013-03-19 14:22:00,
2013-03-19 10:27:00,40.3,39.5,29.68,East,100,18.1,22.8,97,0.00,,---,0.00,VWS V14.01,2013-03-19 14:27:00,
2013-03-19 10:32:00,40.3,39.5,29.68,NE,44,24.2,24.2,97,0.00,,---,0.00,VWS V14.01,2013-03-19 14:32:00,
2013-03-19 10:37:00,40.5,39.7,29.68,ENE,77,23.3,28.0,97,0.00,,---,0.00,VWS V14.01,2013-03-19 14:37:00,
2013-03-19 10:42:00,40.6,39.9,29.68,East,88,15.2,24.8,97,0.00,,---,0.00,VWS V14.01,2013-03-19 14:42:00,
2013-03-19 10:47:00,40.8,40.0,29.68,NNE,33,19.0,22.8,97,0.00,,---,0.00,VWS V14.01,2013-03-19 14:47:00,
2013-03-19 10:52:00,40.8,40.0,29.68,ENE,60,19.0,20.6,97,0.00,,---,0.00,VWS V14.01,2013-03-19 14:52:00,
2013-03-19 10:57:00,41.0,40.2,29.65,NNE,27,13.9,24.8,97,0.00,,---,0.00,VWS V14.01,2013-03-19 14:57:00,
2013-03-19 11:02:00,41.2,40.4,29.65,NE,45,24.4,29.5,97,0.00,,---,0.00,VWS V14.01,2013-03-19 15:02:00,
2013-03-19 11:07:00,41.4,40.6,29.65,ENE,60,25.7,25.7,97,0.00,,---,0.00,VWS V14.01,2013-03-19 15:07:00,
2013-03-19 11:12:00,41.4,40.6,29.65,ENE,64,30.9,30.9,97,0.00,,---,0.00,VWS V14.01,2013-03-19 15:12:00,
2013-03-19 11:17:00,41.7,40.9,29.65,NE,53,24.4,24.4,97,0.00,,---,0.00,VWS V14.01,2013-03-19 15:17:00,
2013-03-19 11:22:00,41.7,40.9,29.65,NE,37,22.8,27.1,97,0.00,,---,0.00,VWS V14.01,2013-03-19 15:22:00,
2013-03-19 11:27:00,41.9,41.1,29.62,East,82,25.7,28.0,97,0.00,,---,0.00,VWS V14.01,2013-03-19 15:27:00,
2013-03-19 11:32:00,42.1,41.3,29.62,NE,49,14.8,21.5,97,0.00,,---,0.00,VWS V14.01,2013-03-19 15:32:00,
2013-03-19 11:37:00,42.1,41.3,29.62,ENE,70,30.4,30.4,97,0.00,,---,0.00,VWS V14.01,2013-03-19 15:37:00,
2013-03-19 11:42:00,42.4,41.7,29.62,NNE,31,17.7,31.3,97,0.04,,---,0.04,VWS V14.01,2013-03-19 15:42:00,
2013-03-19 11:47:00,42.3,41.5,29.62,NE,53,14.3,28.0,97,0.04,,---,0.04,VWS V14.01,2013-03-19 15:47:00,
2013-03-19 11:52:00,42.3,41.5,29.62,ENE,58,24.8,36.9,97,0.04,,---,0.04,VWS V14.01,2013-03-19 15:52:00,
2013-03-19 11:57:00,42.6,41.8,29.59,NE,45,21.9,26.2,97,0.04,,---,0.04,VWS V14.01,2013-03-19 15:57:00,
2013-03-19 12:02:00,42.4,41.7,29.59,NE,56,20.1,27.5,97,0.04,,---,0.04,VWS V14.01,2013-03-19 16:02:00,
2013-03-19 12:07:00,42.6,41.8,29.59,East,94,30.4,30.4,97,0.04,,---,0.04,VWS V14.01,2013-03-19 16:07:00,
2013-03-19 12:12:00,42.8,42.0,29.59,NE,45,28.6,33.1,97,0.04,,---,0.04,VWS V14.01,2013-03-19 16:12:00,
2013-03-19 12:17:00,43.0,42.2,29.59,ENE,65,22.4,30.4,97,0.04,,---,0.04,VWS V14.01,2013-03-19 16:17:00,
2013-03-19 12:22:00,43.2,42.4,29.59,NE,43,17.2,32.7,97,0.04,,---,0.04,VWS V14.01,2013-03-19 16:22:00,
2013-03-19 12:27:00,43.0,42.2,29.56,ENE,64,33.1,37.4,97,0.04,,---,0.04,VWS V14.01,2013-03-19 16:27:00,
2013-03-19 12:32:00,43.3,42.5,29.56,NE,47,29.5,29.5,97,0.04,,---,0.04,VWS V14.01,2013-03-19 16:32:00,
2013-03-19 12:37:00,43.3,42.5,29.56,NE,53,19.9,24.8,97,0.04,,---,0.04,VWS V14.01,2013-03-19 16:37:00,
2013-03-19 12:42:00,43.5,42.7,29.53,ENE,63,26.2,26.2,97,0.00,,---,0.04,VWS V14.01,2013-03-19 16:42:00,
2013-03-19 12:47:00,43.7,42.9,29.53,NE,45,18.6,32.2,97,0.04,,---,0.08,VWS V14.01,2013-03-19 16:47:00,
2013-03-19 12:52:00,43.7,42.9,29.53,ENE,59,32.2,32.7,97,0.04,,---,0.08,VWS V14.01,2013-03-19 16:52:00,
2013-03-19 12:57:00,43.7,42.9,29.53,ENE,64,35.1,38.9,97,0.04,,---,0.08,VWS V14.01,2013-03-19 16:57:00,
2013-03-19 13:02:00,44.1,43.3,29.53,NE,47,29.5,30.0,97,0.04,,---,0.08,VWS V14.01,2013-03-19 17:02:00,
2013-03-19 13:07:00,43.7,42.9,29.53,East,93,26.2,28.6,97,0.04,,---,0.08,VWS V14.01,2013-03-19 17:07:00,
2013-03-19 13:12:00,44.1,43.3,29.53,East,88,24.2,26.2,97,0.04,,---,0.08,VWS V14.01,2013-03-19 17:12:00,
2013-03-19 13:17:00,44.1,43.3,29.53,ENE,65,18.6,18.6,97,0.04,,---,0.08,VWS V14.01,2013-03-19 17:17:00,
2013-03-19 13:22:00,44.2,43.4,29.53,ENE,71,20.1,27.5,97,0.04,,---,0.08,VWS V14.01,2013-03-19 17:22:00,
2013-03-19 13:27:00,44.2,43.4,29.50,East,91,28.6,30.4,97,0.04,,---,0.08,VWS V14.01,2013-03-19 17:27:00,
2013-03-19 13:32:00,44.2,43.4,29.50,NE,39,23.7,24.4,97,0.04,,---,0.08,VWS V14.01,2013-03-19 17:32:00,
2013-03-19 13:37:00,44.6,43.8,29.50,ENE,73,25.3,32.2,97,0.04,,---,0.08,VWS V14.01,2013-03-19 17:37:00,
2013-03-19 13:42:00,44.4,43.6,29.50,ENE,74,24.2,25.3,97,0.04,,---,0.08,VWS V14.01,2013-03-19 17:42:00,
2013-03-19 13:47:00,45.0,44.2,29.50,East,87,28.4,28.4,97,0.00,,---,0.08,VWS V14.01,2013-03-19 17:47:00,
2013-03-19 13:52:00,45.1,44.3,29.50,ENE,58,25.3,28.4,97,0.00,,---,0.08,VWS V14.01,2013-03-19 17:52:00,
2013-03-19 13:57:00,44.8,44.0,29.47,East,85,15.4,21.0,97,0.00,,---,0.08,VWS V14.01,2013-03-19 17:57:00,
2013-03-19 14:02:00,45.1,44.3,29.47,ENE,75,21.9,24.4,97,0.00,,---,0.08,VWS V14.01,2013-03-19 18:02:00,
2013-03-19 14:07:00,45.1,44.3,29.47,ENE,76,17.7,25.3,97,0.00,,---,0.08,VWS V14.01,2013-03-19 18:07:00,
2013-03-19 14:12:00,45.1,44.3,29.47,ENE,74,16.8,24.8,97,0.00,,---,0.08,VWS V14.01,2013-03-19 18:12:00,
2013-03-19 14:17:00,45.3,44.5,29.47,ENE,75,17.7,23.7,97,0.00,,---,0.08,VWS V14.01,2013-03-19 18:17:00,
2013-03-19 14:22:00,45.1,44.3,29.47,ENE,74,22.8,22.8,97,0.00,,---,0.08,VWS V14.01,2013-03-19 18:22:00,
2013-03-19 14:27:00,45.3,44.5,29.47,ENE,73,20.1,25.7,97,0.00,,---,0.08,VWS V14.01,2013-03-19 18:27:00,
2013-03-19 14:32:00,45.3,44.5,29.47,ENE,74,15.9,19.0,97,0.00,,---,0.08,VWS V14.01,2013-03-19 18:32:00,
2013-03-19 14:37:00,45.3,44.5,29.47,ENE,74,23.3,23.3,97,0.00,,---,0.08,VWS V14.01,2013-03-19 18:37:00,
2013-03-19 14:42:00,45.3,44.5,29.44,ENE,62,15.4,22.8,97,0.00,,---,0.08,VWS V14.01,2013-03-19 18:42:00,
2013-03-19 14:47:00,45.1,44.3,29.44,ENE,74,15.9,28.0,97,0.00,,---,0.08,VWS V14.01,2013-03-19 18:47:00,
2013-03-19 14:52:00,45.3,44.5,29.44,East,84,21.9,22.8,97,0.00,,---,0.08,VWS V14.01,2013-03-19 18:52:00,
2013-03-19 14:57:00,45.3,44.5,29.44,ENE,63,21.9,28.0,97,0.00,,---,0.08,VWS V14.01,2013-03-19 18:57:00,
2013-03-19 15:02:00,45.3,44.5,29.44,East,85,21.0,24.4,97,0.00,,---,0.08,VWS V14.01,2013-03-19 19:02:00,
2013-03-19 15:07:00,45.5,44.7,29.44,East,85,22.4,22.4,97,0.00,,---,0.08,VWS V14.01,2013-03-19 19:07:00,
2013-03-19 15:12:00,45.3,44.5,29.44,East,89,24.8,24.8,97,0.00,,---,0.08,VWS V14.01,2013-03-19 19:12:00,
2013-03-19 15:17:00,45.5,44.7,29.44,NE,42,11.6,18.1,97,0.00,,---,0.08,VWS V14.01,2013-03-19 19:17:00,
2013-03-19 15:22:00,45.5,44.7,29.44,NE,50,16.3,22.4,97,0.00,,---,0.08,VWS V14.01,2013-03-19 19:22:00,
2013-03-19 15:27:00,45.7,44.9,29.44,East,87,17.2,23.3,97,0.00,,---,0.08,VWS V14.01,2013-03-19 19:27:00,
2013-03-19 15:32:00,45.7,44.9,29.44,ENE,77,18.1,19.9,97,0.00,,---,0.08,VWS V14.01,2013-03-19 19:32:00,
2013-03-19 15:37:00,45.9,45.1,29.44,ENE,74,15.2,21.0,97,0.00,,---,0.08,VWS V14.01,2013-03-19 19:37:00,
2013-03-19 15:42:00,45.9,45.1,29.41,ENE,72,19.0,20.1,97,0.00,,---,0.08,VWS V14.01,2013-03-19 19:42:00,
2013-03-19 15:47:00,46.0,45.2,29.41,East,80,15.9,18.1,97,0.00,,---,0.08,VWS V14.01,2013-03-19 19:47:00,
2013-03-19 15:52:00,46.2,45.4,29.41,ENE,78,15.2,20.1,97,0.00,,---,0.08,VWS V14.01,2013-03-19 19:52:00,
2013-03-19 15:57:00,46.2,45.4,29.41,East,87,19.0,19.9,97,0.00,,---,0.08,VWS V14.01,2013-03-19 19:57:00,
2013-03-19 16:02:00,46.4,45.6,29.41,East,87,11.2,15.4,97,0.00,,---,0.08,VWS V14.01,2013-03-19 20:02:00,
2013-03-19 16:07:00,46.6,45.8,29.41,ENE,69,14.3,14.3,97,0.00,,---,0.08,VWS V14.01,2013-03-19 20:07:00,
2013-03-19 16:12:00,46.6,45.8,29.38,East,82,16.8,17.7,97,0.00,,---,0.08,VWS V14.01,2013-03-19 20:12:00,
2013-03-19 16:17:00,46.8,46.0,29.38,East,86,11.0,13.4,97,0.00,,---,0.08,VWS V14.01,2013-03-19 20:17:00,
2013-03-19 16:22:00,46.9,46.1,29.38,ENE,75,11.6,15.2,97,0.00,,---,0.08,VWS V14.01,2013-03-19 20:22:00,
2013-03-19 16:27:00,47.1,46.3,29.38,ENE,76,9.2,12.5,97,0.00,,---,0.08,VWS V14.01,2013-03-19 20:27:00,
2013-03-19 16:32:00,47.3,46.5,29.38,ESE,111,7.4,9.6,97,0.00,,---,0.08,VWS V14.01,2013-03-19 20:32:00,
2013-03-19 16:37:00,47.5,46.7,29.38,East,96,4.5,6.7,97,0.00,,---,0.08,VWS V14.01,2013-03-19 20:37:00,
2013-03-19 16:42:00,47.8,47.0,29.38,East,100,6.9,8.3,97,0.00,,---,0.08,VWS V14.01,2013-03-19 20:42:00,
2013-03-19 16:48:00,48.2,47.4,29.38,ENE,75,6.3,7.4,97,0.00,,---,0.08,VWS V14.01,2013-03-19 20:48:00,
2013-03-19 16:53:00,48.4,47.6,29.38,ESE,106,4.9,6.9,97,0.00,,---,0.08,VWS V14.01,2013-03-19 20:53:00,
2013-03-19 16:58:00,48.6,47.8,29.38,ENE,60,5.4,6.7,97,0.00,,---,0.08,VWS V14.01,2013-03-19 20:58:00,
2013-03-19 17:03:00,48.2,47.4,29.38,ESE,121,5.8,6.7,97,0.00,,---,0.08,VWS V14.01,2013-03-19 21:03:00,
2013-03-19 17:08:00,48.2,47.4,29.38,SSE,157,8.7,8.7,97,0.00,,---,0.08,VWS V14.01,2013-03-19 21:08:00,
2013-03-19 17:12:00,48.0,47.2,29.38,SSE,164,3.1,7.8,97,0.00,,---,0.08,VWS V14.01,2013-03-19 21:12:00,
2013-03-19 17:17:00,47.8,47.0,29.38,SE,132,4.9,5.4,97,0.00,,---,0.08,VWS V14.01,2013-03-19 21:17:00,
2013-03-19 17:22:00,47.8,47.0,29.38,SE,126,3.6,6.9,97,0.00,,---,0.08,VWS V14.01,2013-03-19 21:22:00,
2013-03-19 17:27:00,48.0,47.2,29.35,SE,142,3.1,4.5,97,0.00,,---,0.08,VWS V14.01,2013-03-19 21:27:00,
2013-03-19 17:33:00,48.0,47.2,29.35,SE,145,4.9,5.8,97,0.00,,---,0.08,VWS V14.01,2013-03-19 21:33:00,
2013-03-19 17:38:00,48.0,47.2,29.35,SSE,148,6.3,6.7,97,0.00,,---,0.08,VWS V14.01,2013-03-19 21:38:00,
2013-03-19 17:43:00,47.7,46.8,29.35,SSE,150,4.0,6.3,97,0.00,,---,0.08,VWS V14.01,2013-03-19 21:43:00,
2013-03-19 17:48:00,47.5,46.7,29.35,SSE,151,4.5,8.7,97,0.00,,---,0.08,VWS V14.01,2013-03-19 21:48:00,
2013-03-19 17:53:00,47.5,46.7,29.35,SSE,158,5.8,9.2,97,0.00,,---,0.08,VWS V14.01,2013-03-19 21:53:00,
2013-03-19 17:58:00,47.3,46.5,29.35,SE,129,4.5,6.3,97,0.00,,---,0.08,VWS V14.01,2013-03-19 21:58:00,
2013-03-19 18:03:00,47.3,46.5,29.35,SE,130,3.1,4.5,97,0.00,,---,0.08,VWS V14.01,2013-03-19 22:03:00,
2013-03-19 18:08:00,47.1,46.3,29.35,SE,141,4.9,6.3,97,0.00,,---,0.08,VWS V14.01,2013-03-19 22:08:00,
2013-03-19 18:13:00,46.9,46.1,29.35,SSE,152,5.4,6.7,97,0.00,,---,0.08,VWS V14.01,2013-03-19 22:13:00,
2013-03-19 18:18:00,46.6,45.8,29.35,South,181,7.4,7.8,97,0.00,,---,0.08,VWS V14.01,2013-03-19 22:18:00,
2013-03-19 18:23:00,46.2,45.4,29.35,South,173,2.7,4.5,97,0.00,,---,0.08,VWS V14.01,2013-03-19 22:23:00,
2013-03-19 18:28:00,46.0,45.2,29.35,South,183,7.4,7.8,97,0.00,,---,0.08,VWS V14.01,2013-03-19 22:28:00,
2013-03-19 18:33:00,46.0,45.2,29.35,South,181,2.7,5.4,97,0.00,,---,0.08,VWS V14.01,2013-03-19 22:33:00,
2013-03-19 18:38:00,45.9,45.1,29.35,SSE,156,6.3,6.3,97,0.00,,---,0.08,VWS V14.01,2013-03-19 22:38:00,
2013-03-19 18:43:00,45.9,45.1,29.35,SSW,204,4.9,6.7,97,0.00,,---,0.08,VWS V14.01,2013-03-19 22:43:00,
2013-03-19 18:48:00,45.5,44.7,29.35,South,178,5.4,6.7,97,0.00,,---,0.08,VWS V14.01,2013-03-19 22:48:00,
2013-03-19 18:53:00,45.3,44.5,29.35,SSW,196,4.9,8.7,97,0.00,,---,0.08,VWS V14.01,2013-03-19 22:53:00,
2013-03-19 18:58:00,45.1,44.3,29.38,South,181,6.9,7.4,97,0.00,,---,0.08,VWS V14.01,2013-03-19 22:58:00,
2013-03-19 19:03:00,45.1,44.3,29.38,SSW,202,7.4,7.8,97,0.00,,---,0.08,VWS V14.01,2013-03-19 23:03:00,
2013-03-19 19:08:00,46.0,45.2,29.38,SW,234,8.7,11.0,97,0.00,,---,0.08,VWS V14.01,2013-03-19 23:08:00,
2013-03-19 19:13:00,45.9,45.1,29.38,SW,233,10.5,15.4,97,0.00,,---,0.08,VWS V14.01,2013-03-19 23:13:00,
2013-03-19 19:18:00,45.1,44.3,29.38,WSW,237,12.1,15.9,97,0.00,,---,0.08,VWS V14.01,2013-03-19 23:18:00,
2013-03-19 19:23:00,44.6,43.8,29.38,SW,216,10.1,16.3,97,0.00,,---,0.08,VWS V14.01,2013-03-19 23:23:00,
2013-03-19 19:27:00,44.2,43.4,29.38,WSW,237,10.1,13.9,97,0.00,,---,0.08,VWS V14.01,2013-03-19 23:27:00,
2013-03-19 19:32:00,44.1,43.3,29.38,SSW,212,14.3,15.4,97,0.00,,---,0.08,VWS V14.01,2013-03-19 23:32:00,
2013-03-19 19:37:00,43.7,42.9,29.38,WSW,243,11.2,12.5,97,0.00,,---,0.08,VWS V14.01,2013-03-19 23:37:00,
2013-03-19 19:42:00,43.5,42.7,29.38,WSW,238,10.5,13.0,97,0.00,,---,0.08,VWS V14.01,2013-03-19 23:42:00,
2013-03-19 19:48:00,43.3,42.5,29.38,WSW,252,9.2,12.1,97,0.00,,---,0.08,VWS V14.01,2013-03-19 23:48:00,
2013-03-19 19:53:00,43.2,42.4,29.38,SW,224,13.0,15.4,97,0.00,,---,0.08,VWS V14.01,2013-03-19 23:53:00,
2013-03-19 19:58:00,43.0,42.2,29.38,SSW,202,13.9,13.9,97,0.00,,---,0.08,VWS V14.01,2013-03-19 23:58:00,
2013-03-19 20:03:00,42.6,41.8,29.38,WSW,243,10.1,15.9,97,0.00,,---,0.08,VWS V14.01,2013-03-20 00:03:00,
2013-03-19 20:07:00,42.6,41.8,29.38,WSW,256,10.5,11.2,97,0.00,,---,0.08,VWS V14.01,2013-03-20 00:07:00,
2013-03-19 20:12:00,42.4,41.7,29.38,WSW,246,14.3,16.3,97,0.00,,---,0.08,VWS V14.01,2013-03-20 00:12:00,
2013-03-19 20:17:00,42.4,41.7,29.38,SW,235,12.1,12.1,97,0.00,,---,0.08,VWS V14.01,2013-03-20 00:17:00,
2013-03-19 20:22:00,42.1,41.3,29.38,West,264,14.3,15.4,97,0.00,,---,0.08,VWS V14.01,2013-03-20 00:22:00,
2013-03-19 20:27:00,42.1,41.3,29.38,SW,231,12.1,20.6,97,0.00,,---,0.08,VWS V14.01,2013-03-20 00:27:00,
2013-03-19 20:32:00,41.9,41.1,29.38,SW,230,12.5,15.4,97,0.00,,---,0.08,VWS V14.01,2013-03-20 00:32:00,
2013-03-19 20:37:00,41.7,40.9,29.38,West,264,6.3,9.6,97,0.00,,---,0.08,VWS V14.01,2013-03-20 00:37:00,
2013-03-19 20:42:00,41.5,40.8,29.38,West,259,6.9,12.5,97,0.00,,---,0.08,VWS V14.01,2013-03-20 00:42:00,
2013-03-19 20:47:00,41.5,40.8,29.38,West,264,12.5,14.8,97,0.00,,---,0.08,VWS V14.01,2013-03-20 00:47:00,
2013-03-19 20:52:00,41.4,40.6,29.38,SW,229,5.8,11.6,97,0.00,,---,0.08,VWS V14.01,2013-03-20 00:52:00,
2013-03-19 20:57:00,41.2,40.4,29.41,SW,233,11.6,16.3,97,0.00,,---,0.08,VWS V14.01,2013-03-20 00:57:00,
2013-03-19 21:03:00,41.0,40.2,29.41,South,189,13.0,19.9,97,0.00,,---,0.08,VWS V14.01,2013-03-20 01:03:00,
2013-03-19 21:08:00,41.0,40.2,29.41,SSW,213,10.1,16.3,97,0.00,,---,0.08,VWS V14.01,2013-03-20 01:08:00,
2013-03-19 21:13:00,40.5,39.7,29.41,SW,224,14.3,20.1,97,0.00,,---,0.08,VWS V14.01,2013-03-20 01:13:00,
2013-03-19 21:18:00,40.5,39.7,29.41,SW,235,11.2,16.3,97,0.00,,---,0.08,VWS V14.01,2013-03-20 01:18:00,
2013-03-19 21:23:00,40.3,39.5,29.41,SW,228,11.6,17.2,97,0.00,,---,0.08,VWS V14.01,2013-03-20 01:23:00,
2013-03-19 21:28:00,40.1,39.3,29.44,WSW,237,17.2,20.1,97,0.00,,---,0.08,VWS V14.01,2013-03-20 01:28:00,
2013-03-19 21:33:00,39.9,39.1,29.44,WSW,246,12.5,16.3,97,0.00,,---,0.08,VWS V14.01,2013-03-20 01:33:00,
2013-03-19 21:37:00,39.7,39.0,29.44,SW,232,11.6,16.3,97,0.00,,---,0.08,VWS V14.01,2013-03-20 01:37:00,
2013-03-19 21:42:00,39.7,39.0,29.44,SW,227,15.2,15.2,97,0.00,,---,0.08,VWS V14.01,2013-03-20 01:42:00,
2013-03-19 21:47:00,39.4,38.6,29.44,SSW,213,12.1,20.1,97,0.00,,---,0.08,VWS V14.01,2013-03-20 01:47:00,
2013-03-19 21:52:00,39.2,38.4,29.44,SW,225,13.4,15.9,97,0.00,,---,0.08,VWS V14.01,2013-03-20 01:52:00,
2013-03-19 21:57:00,38.8,38.1,29.44,SW,227,14.8,23.3,97,0.00,,---,0.08,VWS V14.01,2013-03-20 01:57:00,
2013-03-19 22:02:00,38.7,37.9,29.44,SW,232,18.6,21.9,97,0.00,,---,0.08,VWS V14.01,2013-03-20 02:02:00,
2013-03-19 22:07:00,38.5,37.7,29.44,SW,227,13.9,15.9,97,0.00,,---,0.08,VWS V14.01,2013-03-20 02:07:00,
2013-03-19 22:12:00,38.3,37.5,29.44,West,270,16.8,20.6,97,0.00,,---,0.08,VWS V14.01,2013-03-20 02:12:00,
2013-03-19 22:17:00,37.9,37.2,29.44,WSW,245,8.3,23.7,97,0.00,,---,0.08,VWS V14.01,2013-03-20 02:17:00,
2013-03-19 22:22:00,37.6,36.8,29.44,WSW,256,11.0,16.3,97,0.00,,---,0.08,VWS V14.01,2013-03-20 02:22:00,
2013-03-19 22:27:00,37.4,36.4,29.47,SW,232,10.5,15.9,96,0.00,,---,0.08,VWS V14.01,2013-03-20 02:27:00,
2013-03-19 22:32:00,37.0,36.0,29.47,WSW,257,11.6,15.4,96,0.00,,---,0.08,VWS V14.01,2013-03-20 02:32:00,
2013-03-19 22:37:00,36.7,35.4,29.47,WSW,257,14.3,22.8,95,0.00,,---,0.08,VWS V14.01,2013-03-20 02:37:00,
2013-03-19 22:42:00,36.5,35.2,29.47,West,269,14.8,18.6,95,0.00,,---,0.08,VWS V14.01,2013-03-20 02:42:00,
2013-03-19 22:47:00,36.1,34.3,29.47,WSW,240,19.5,26.6,93,0.00,,---,0.08,VWS V14.01,2013-03-20 02:47:00,
2013-03-19 22:52:00,35.8,33.7,29.47,West,264,17.7,17.7,92,0.00,,---,0.08,VWS V14.01,2013-03-20 02:52:00,
2013-03-19 22:57:00,35.6,33.5,29.47,West,276,20.1,20.6,92,0.00,,---,0.08,VWS V14.01,2013-03-20 02:57:00,
2013-03-19 23:02:00,35.4,33.1,29.47,WSW,254,14.3,19.9,91,0.00,,---,0.08,VWS V14.01,2013-03-20 03:02:00,
2013-03-19 23:07:00,35.1,33.0,29.47,NW,304,17.7,25.3,92,0.00,,---,0.08,VWS V14.01,2013-03-20 03:07:00,
2013-03-19 23:12:00,34.9,32.8,29.47,NW,317,19.5,27.5,92,0.00,,---,0.08,VWS V14.01,2013-03-20 03:12:00,
2013-03-19 23:17:00,34.9,32.5,29.47,West,280,21.9,25.7,91,0.00,,---,0.08,VWS V14.01,2013-03-20 03:17:00,
2013-03-19 23:22:00,34.7,32.6,29.47,West,267,12.5,19.9,92,0.00,,---,0.08,VWS V14.01,2013-03-20 03:22:00,
2013-03-19 23:27:00,34.7,32.6,29.47,West,273,11.0,14.3,92,0.00,,---,0.08,VWS V14.01,2013-03-20 03:27:00,
2013-03-19 23:32:00,34.7,32.6,29.47,West,276,15.9,20.6,92,0.00,,---,0.08,VWS V14.01,2013-03-20 03:32:00,
2013-03-19 23:37:00,34.7,32.1,29.47,West,271,17.2,17.2,90,0.00,,---,0.08,VWS V14.01,2013-03-20 03:37:00,
2013-03-19 23:42:00,34.5,31.9,29.50,WSW,257,14.8,14.8,90,0.00,,---,0.08,VWS V14.01,2013-03-20 03:42:00,
2013-03-19 23:47:00,34.5,31.9,29.50,West,268,13.9,15.2,90,0.00,,---,0.08,VWS V14.01,2013-03-20 03:47:00,
2013-03-19 23:52:00,34.2,31.3,29.50,West,272,13.9,16.8,89,0.00,,---,0.08,VWS V14.01,2013-03-20 03:52:00,
2013-03-19 23:57:00,33.8,30.9,29.50,West,280,15.2,16.8,89,0.00,,---,0.08,VWS V14.01,2013-03-20 03:57:00,